Regional Weather Roundup
Issued by NWS Binghamton, NY

Home | Current Version | Previous Version | Text Only | Print | Product List | Glossary On
Versions: 1 2 3 4 5 6 7 8 9 10 11 12 13 14 15 16 17 18 19 20 21 22 23 24 25 26 27 28 29 30 31 32 33 34 35 36 37 38 39 40 41 42 43 44 45 46 47 48 49 50
000
ASUS41 KBGM 292010
RWRBGM

REGIONAL WEATHER ROUNDUP
NATIONAL WEATHER SERVICE BINGHAMTON NY
400 PM EDT THU SEP 29 2016

Note: "fair" indicates few or no clouds below 12,000 feet with no
significant weather and/or obstructions to visibility.

* = Station(s) that does not report precipitation, such as rain,
snow, etc, also no thunder or fog.

NYZ009-015>018-022>025-036-037-044>046-055>057-062-292100
...Central New York...

CITY           SKY/WX    TMP DP  RH WIND       PRES   REMARKS
Binghamton     CLOUDY    57  53  86 E7        30.34S
Cortland       CLOUDY    59  50  72 E9        30.35F
Dansville      CLOUDY    63  56  78 SE8       30.30F
Elmira         CLOUDY    60  54  80 E12       30.31S
Ithaca         PTSUNNY   58  54  86 E3        30.35S
Hamilton       CLOUDY    64  48  55 E7        30.37S
Hornell        CLOUDY    59  55  88 SE9G16    30.32F
Monticello     CLOUDY    59  45  58 E16G22    30.37F
Norwich        MOSUNNY   63  45  51 SE5       30.36S
Oneonta        SUNNY     61  43  51 E6        30.37R
Penn Yan       CLOUDY    60  56  86 VRB3      30.33F
Rome           CLOUDY    63  51  65 E8        30.38F
Sidney         CLOUDY    63  52  67 NE6       30.35S
Syracuse       PTSUNNY   61  50  67 NE8       30.35S
$$

PAZ038>040-043-044-047-048-072-292100
...Northeast Pennsylvania...

CITY           SKY/WX    TMP DP  RH WIND       PRES   REMARKS
Hazleton       CLOUDY    55  52  88 E8G17     30.33R
Scranton       CLOUDY    59  52  77 E10       30.32S
$$
&&
KEY
WCI = Wind Chill Index
VSB = Visibility
HX  = Heat Index
$$



USA.gov is the U.S. government's official web portal to all federal, state and local government web resources and services.